Time[GMT],air_temperature[C](-3m),wind_speed[m/s](-4m),wind_gust[m/s](-4m),barometric_pressure[millibars](-3m),wind_2_direction[degrees_true](-4m),wind_2_gust[m/s](-4m),wind_2_gust_1s[m/s](-4m),wind_2_min[m/s](-4m),wind_2_percent_good[1](-4m),wind_2_speed[m/s](-4m),wind_direction[degrees_true](-4m),wind_gust_1s[m/s](-4m),wind_min[m/s](-4m)
2019-08-23 18:00,29.0,,,1015.98,99.70,8.02,8.88,3.56,1.00,6.64,,,
2019-08-23 19:00,29.1,,,1015.32,106.60,7.81,8.85,3.93,1.00,6.30,,,
2019-08-23 20:00,29.2,,,1015.20,107.50,7.63,8.89,4.22,1.00,6.27,,,
2019-08-23 21:00,29.3,,,1015.20,100.80,7.58,8.50,3.76,1.00,6.33,,,
2019-08-23 22:00,29.2,,,1015.62,106.10,8.37,8.77,3.88,1.00,6.59,,,
2019-08-23 23:00,29.1,,,1015.86,96.10,8.40,9.40,4.18,1.00,6.86,,,
2019-08-24 00:00,29.0,,,1016.34,93.20,8.02,9.20,4.05,1.00,6.64,,,
2019-08-24 01:00,29.1,,,1017.00,94.00,8.00,8.73,3.54,1.00,6.03,,,
2019-08-24 02:00,29.1,,,1017.36,88.60,8.26,9.19,4.26,1.00,6.96,,,
2019-08-24 03:00,29.0,,,1017.36,98.90,8.71,9.41,3.77,1.00,6.67,,,
2019-08-24 04:00,29.0,,,1016.88,95.50,8.17,9.06,3.70,1.00,6.62,,,
2019-08-24 05:00,29.0,,,1016.40,100.40,7.95,8.82,3.60,1.00,6.50,,,
2019-08-24 06:00,28.9,,,1016.10,100.30,7.58,8.77,3.69,1.00,6.00,,,
2019-08-24 07:00,28.8,,,1015.50,99.70,7.57,8.09,2.87,1.00,6.01,,,
2019-08-24 08:00,28.8,,,1015.68,96.60,6.96,7.88,2.73,1.00,5.78,,,
2019-08-24 09:00,28.7,,,1015.92,98.40,7.50,8.56,4.07,1.00,6.52,,,
2019-08-24 10:00,28.7,,,1016.34,104.40,6.98,8.49,3.08,1.00,6.16,,,
2019-08-24 11:00,29.0,,,1016.70,102.20,7.29,8.58,3.77,1.00,5.93,,,
2019-08-24 12:00,29.1,,,1017.42,95.90,6.56,7.63,3.26,1.00,5.54,,,
2019-08-24 13:00,29.1,,,1017.84,97.10,6.95,7.67,2.77,1.00,5.65,,,
2019-08-24 14:00,29.1,,,1018.14,93.20,6.57,7.53,3.02,1.00,5.42,,,
2019-08-24 15:00,29.1,,,1017.90,95.30,7.47,8.84,3.39,1.00,6.31,,,
2019-08-24 16:00,29.2,,,1017.66,91.40,7.29,8.00,3.18,1.00,6.04,,,
2019-08-24 17:00,29.2,,,1016.88,106.60,7.55,8.16,3.77,1.00,5.90,,,
2019-08-24 18:00,29.2,,,1016.28,103.60,6.27,7.05,3.04,1.00,5.41,,,
2019-08-24 19:00,29.3,,,1016.22,103.70,6.18,7.27,3.13,1.00,5.50,,,
2019-08-24 20:00,29.4,,,1016.16,106.80,6.47,7.09,3.07,1.00,5.26,,,
2019-08-24 21:00,29.4,,,1015.74,104.30,7.02,8.10,3.76,1.00,5.74,,,
2019-08-24 22:00,29.3,,,1015.98,101.60,7.40,8.25,3.21,1.00,6.40,,,
2019-08-24 23:00,29.1,,,1016.10,94.30,7.90,9.53,3.51,1.00,6.65,,,
2019-08-25 00:00,29.1,,,1016.22,88.50,7.22,8.33,3.62,1.00,5.95,,,
2019-08-25 01:00,29.0,,,1016.70,84.30,7.86,9.45,3.72,1.00,5.92,,,
2019-08-25 02:00,29.0,,,1017.18,97.40,7.16,8.02,3.27,1.00,6.21,,,
2019-08-25 03:00,28.9,,,1017.42,90.20,7.25,7.94,3.97,1.00,6.06,,,
2019-08-25 04:00,28.9,,,1017.30,104.00,6.17,7.37,2.86,1.00,5.17,,,
2019-08-25 05:00,29.0,,,1016.64,104.20,7.15,7.82,3.65,1.00,5.96,,,
2019-08-25 06:00,29.0,,,1016.04,99.10,6.94,7.98,3.55,1.00,6.11,,,
2019-08-25 07:00,28.9,,,1015.68,100.20,7.71,8.84,3.40,1.00,6.08,,,
2019-08-25 08:00,28.8,,,1015.26,100.30,8.45,9.60,3.98,1.00,6.78,,,
2019-08-25 09:00,28.8,,,1015.50,101.70,8.12,9.27,4.19,1.00,6.59,,,
2019-08-25 10:00,28.8,,,1015.92,106.00,8.49,9.45,4.03,1.00,6.59,,,
2019-08-25 11:00,28.8,,,1016.46,103.20,7.84,8.97,3.69,1.00,6.43,,,
2019-08-25 12:00,29.0,,,1016.88,98.00,8.42,9.58,4.12,1.00,6.82,,,
2019-08-25 13:00,29.1,,,1017.18,98.20,8.57,9.07,3.99,1.00,6.70,,,
2019-08-25 14:00,29.1,,,1017.60,101.10,7.57,8.36,3.90,1.00,6.12,,,
2019-08-25 15:00,29.0,,,1017.24,101.00,7.78,8.16,4.09,1.00,6.19,,,
2019-08-25 16:00,29.2,,,1017.00,115.00,7.59,8.48,3.60,1.00,5.74,,,
2019-08-25 17:00,29.1,,,1016.52,104.40,7.27,8.92,3.43,1.00,5.68,,,
2019-08-25 18:00,29.1,,,1015.92,102.60,6.54,7.28,3.00,1.00,4.92,,,
2019-08-25 19:00,29.2,,,1015.44,89.40,6.62,7.79,3.37,1.00,5.32,,,
2019-08-25 20:00,29.3,,,1015.14,93.00,6.81,7.92,3.56,1.00,5.62,,,
2019-08-25 21:00,29.3,,,1015.08,110.60,5.96,6.75,2.84,1.00,4.80,,,
2019-08-25 22:00,29.3,,,1015.32,106.10,5.25,5.92,2.46,1.00,4.07,,,
2019-08-25 23:00,29.0,,,1015.62,97.70,5.41,6.34,2.91,1.00,4.60,,,
2019-08-26 00:00,29.0,,,1015.98,95.70,5.13,6.05,2.09,1.00,4.14,,,
2019-08-26 01:00,29.2,,,1016.22,90.40,6.24,7.48,3.41,1.00,5.15,,,
2019-08-26 02:00,29.1,,,1016.58,92.60,6.11,6.84,2.58,1.00,4.94,,,
2019-08-26 03:00,29.0,,,1016.82,80.10,7.05,8.01,2.19,1.00,4.93,,,
2019-08-26 04:00,28.8,,,1016.64,74.70,6.24,7.06,3.24,1.00,5.06,,,
2019-08-26 05:00,28.9,,,1016.16,89.20,6.81,7.33,3.14,1.00,5.46,,,
2019-08-26 06:00,28.7,,,1016.10,85.10,6.54,7.47,2.27,1.00,5.31,,,
2019-08-26 07:00,28.9,,,1015.68,102.20,7.17,7.97,3.30,1.00,5.36,,,
2019-08-26 08:00,28.8,,,1015.44,96.40,7.01,7.91,3.68,1.00,5.75,,,
2019-08-26 09:00,28.9,,,1015.80,98.60,7.34,8.32,3.64,1.00,5.96,,,
2019-08-26 10:00,28.9,,,1016.10,98.30,7.94,8.97,4.35,1.00,6.82,,,
2019-08-26 11:00,29.0,,,1016.28,96.20,7.37,8.58,3.86,1.00,6.14,,,
2019-08-26 12:00,29.2,,,1016.76,104.80,7.28,8.51,3.67,1.00,5.74,,,
2019-08-26 13:00,29.1,,,1016.88,109.10,7.26,8.16,4.08,1.00,5.75,,,
2019-08-26 14:00,29.1,,,1016.94,107.10,7.05,8.05,3.66,1.00,5.78,,,
2019-08-26 15:00,29.1,,,1017.12,98.60,6.55,7.19,2.94,1.00,5.23,,,
2019-08-26 16:00,29.1,,,1016.58,105.00,6.57,7.36,3.23,1.00,5.50,,,
2019-08-26 17:00,29.2,,,1015.98,106.80,6.30,7.45,2.77,1.00,5.59,,,
2019-08-26 18:00,29.2,,,1015.26,111.50,7.15,8.02,3.55,1.00,5.99,,,
2019-08-26 19:00,29.2,,,1014.66,99.70,7.44,8.05,3.47,1.00,5.97,,,
2019-08-26 20:00,29.3,,,1014.60,93.50,7.46,8.32,3.84,1.00,5.74,,,
2019-08-26 21:00,29.4,,,1014.66,94.10,6.46,7.19,3.20,1.00,5.16,,,
2019-08-26 22:00,29.2,,,1014.90,88.40,6.02,6.81,3.16,1.00,5.11,,,
2019-08-26 23:00,29.1,,,1015.08,83.90,6.42,7.06,3.59,1.00,5.21,,,
2019-08-27 00:00,29.0,,,1015.50,68.70,7.11,7.69,3.15,1.00,5.58,,,
2019-08-27 01:00,29.0,,,1015.92,71.20,7.21,8.09,3.76,1.00,5.86,,,
2019-08-27 02:00,28.9,,,1016.40,69.10,7.50,8.31,3.89,1.00,6.47,,,
2019-08-27 03:00,28.9,,,1016.40,78.20,7.46,8.44,3.36,1.00,6.00,,,
2019-08-27 04:00,28.7,,,1016.22,70.10,5.93,6.40,2.86,1.00,4.77,,,
2019-08-27 05:00,28.6,,,1016.10,66.80,4.95,5.68,2.49,1.00,4.23,,,
2019-08-27 06:00,28.5,,,1015.32,75.60,5.81,6.42,2.88,1.00,4.63,,,
2019-08-27 07:00,28.5,,,1014.66,64.32,4.96,5.64,2.43,1.00,4.01,,,
2019-08-27 08:00,28.5,,,1014.18,70.70,6.22,6.67,2.96,1.00,4.49,,,
2019-08-27 09:00,28.4,,,1014.48,69.00,4.97,5.51,1.54,1.00,3.87,,,
2019-08-27 10:00,28.4,,,1014.54,70.90,5.17,5.76,2.46,1.00,3.92,,,
2019-08-27 11:00,28.6,,,1014.78,71.10,5.64,6.35,2.48,1.00,4.52,,,
2019-08-27 12:00,28.9,,,1015.38,66.90,4.75,5.52,2.00,1.00,4.02,,,
2019-08-27 13:00,28.9,,,1016.10,63.84,4.13,4.97,1.73,1.00,3.35,,,
2019-08-27 14:00,29.0,,,1015.86,47.39,5.10,5.84,2.52,1.00,4.37,,,
2019-08-27 15:00,29.0,,,1015.68,43.70,6.59,7.46,3.62,1.00,5.59,,,
2019-08-27 16:00,29.0,,,1015.32,40.15,7.13,7.89,2.81,1.00,5.57,,,
2019-08-27 17:00,29.1,,,1015.02,45.27,7.00,7.90,3.52,1.00,5.89,,,
2019-08-27 18:00,29.2,,,1014.12,40.42,7.88,8.87,3.88,1.00,6.60,,,
2019-08-27 19:00,29.1,,,1013.58,47.96,8.78,10.03,4.84,1.00,7.26,,,
2019-08-27 20:00,29.3,,,1013.34,53.43,8.44,9.44,4.80,1.00,7.14,,,
2019-08-27 21:00,29.4,,,1013.58,51.23,8.65,9.42,4.66,1.00,7.32,,,
2019-08-27 22:00,28.5,,,1014.00,47.76,8.51,9.43,3.76,1.00,6.62,,,
2019-08-27 23:00,28.9,,,1014.00,59.48,8.86,9.93,4.96,1.00,7.28,,,
2019-08-28 00:00,28.9,,,1014.30,64.91,8.48,9.82,4.63,1.00,6.80,,,
2019-08-28 01:00,29.0,,,1014.36,55.91,7.36,8.00,3.97,1.00,6.31,,,
2019-08-28 02:00,29.0,,,1014.36,58.28,8.10,9.50,4.10,1.00,6.72,,,
2019-08-28 03:00,28.9,,,1014.24,52.40,8.16,9.15,3.79,1.00,6.44,,,
2019-08-28 04:00,28.9,,,1013.70,59.09,8.54,9.72,4.53,1.00,6.94,,,
2019-08-28 05:00,28.8,,,1012.98,55.84,8.87,10.26,4.43,1.00,6.69,,,
2019-08-28 06:00,26.2,,,1012.86,33.76,3.80,4.67,1.08,1.00,2.87,,,
2019-08-28 07:00,28.4,,,1011.72,62.48,6.95,8.10,3.35,1.00,5.49,,,
2019-08-28 08:00,28.5,,,1011.84,62.20,6.83,7.87,3.17,1.00,5.43,,,
2019-08-28 09:00,27.3,,,1011.66,101.80,6.12,7.07,2.61,1.00,5.02,,,
2019-08-28 10:00,28.2,,,1011.66,50.60,8.46,9.09,3.80,1.00,6.42,,,
2019-08-28 11:00,27.4,,,1011.90,42.12,6.48,7.62,3.20,1.00,5.39,,,
2019-08-28 12:00,28.0,,,1012.50,40.11,8.80,9.91,4.50,1.00,7.01,,,
2019-08-28 13:00,26.1,,,1013.40,82.90,7.74,8.84,3.58,1.00,6.34,,,
2019-08-28 14:00,26.9,,,1012.92,43.17,5.88,6.75,1.32,1.00,4.40,,,
2019-08-28 15:00,27.1,,,1012.92,41.87,5.58,6.51,2.12,1.00,4.60,,,
2019-08-28 16:00,26.0,,,1012.86,68.60,5.51,6.44,2.12,1.00,4.34,,,
2019-08-28 17:00,26.1,,,1010.82,337.40,6.48,7.47,3.00,1.00,5.07,,,
2019-08-28 18:00,25.8,,,1008.90,317.80,10.81,12.17,4.54,1.00,8.45,,,
2019-08-28 19:00,26.2,,,1007.46,278.90,13.73,14.91,6.23,1.00,10.88,,,
2019-08-28 20:00,26.0,,,1007.16,269.70,13.53,15.22,7.08,1.00,11.14,,,
2019-08-28 21:00,26.6,,,1008.18,218.20,12.75,14.23,6.03,1.00,10.64,,,
2019-08-28 22:00,27.5,,,1009.32,210.10,10.91,12.09,4.98,1.00,8.41,,,
2019-08-28 23:00,27.5,,,1009.74,193.10,11.63,12.23,5.67,1.00,9.71,,,
2019-08-29 00:00,28.0,,,1010.34,199.60,10.35,11.22,4.56,1.00,8.61,,,
2019-08-29 01:00,27.3,,,1011.18,193.40,9.69,10.23,3.59,1.00,7.65,,,
2019-08-29 02:00,27.2,,,1011.48,215.40,11.69,12.80,4.96,1.00,9.27,,,
2019-08-29 03:00,26.4,,,1012.32,202.00,16.72,17.09,5.06,1.00,8.75,,,
2019-08-29 04:00,26.3,,,1012.14,257.70,12.39,13.43,4.93,1.00,9.29,,,
2019-08-29 05:00,27.6,,,1011.96,198.00,11.06,12.83,5.59,1.00,8.64,,,
2019-08-29 06:00,26.3,,,1012.02,167.40,12.63,13.55,6.12,1.00,10.00,,,
2019-08-29 07:00,27.2,,,1011.54,182.30,9.90,11.59,6.01,1.00,8.41,,,
2019-08-29 08:00,26.5,,,1011.24,172.20,13.26,14.82,5.93,1.00,8.80,,,
2019-08-29 09:00,27.8,,,1011.60,177.60,7.18,8.59,3.75,1.00,5.96,,,
2019-08-29 10:00,27.9,,,1011.78,165.10,6.24,6.39,3.37,1.00,5.00,,,
2019-08-29 11:00,28.5,,,1012.44,165.80,7.83,8.76,3.71,1.00,6.14,,,
2019-08-29 12:00,28.9,,,1012.92,165.70,8.35,9.14,4.50,1.00,6.70,,,
2019-08-29 13:00,29.1,,,1013.04,164.60,7.51,8.54,2.76,1.00,6.31,,,
2019-08-29 14:00,28.9,,,1013.58,156.70,7.35,8.42,3.63,1.00,5.78,,,
2019-08-29 15:00,29.5,,,1013.52,158.80,9.19,10.66,5.00,1.00,7.69,,,
2019-08-29 16:00,29.1,,,1013.34,143.80,7.55,8.93,3.41,1.00,6.05,,,
2019-08-29 17:00,29.4,,,1012.92,145.70,9.43,10.04,5.25,1.00,7.55,,,
2019-08-29 18:00,29.7,,,1012.14,144.40,10.23,11.91,4.68,1.00,7.94,,,
2019-08-29 19:00,29.5,,,1012.20,164.00,7.91,8.34,2.97,1.00,6.25,,,
2019-08-29 20:00,25.9,,,1012.38,311.80,9.17,10.78,4.42,1.00,6.78,,,
2019-08-29 21:00,25.0,,,1014.42,146.10,5.13,6.18,1.96,1.00,3.68,,,
2019-08-29 22:00,25.3,,,1013.22,167.10,5.89,6.55,3.14,1.00,4.53,,,
2019-08-29 23:00,26.5,,,1012.80,174.80,3.11,3.40,0.38,1.00,1.65,,,
2019-08-30 00:00,27.2,,,1013.76,114.60,4.74,5.16,2.54,1.00,3.69,,,
2019-08-30 01:00,27.4,,,1013.88,123.80,4.95,5.32,2.21,1.00,3.88,,,
2019-08-30 02:00,27.5,,,1014.42,167.00,2.77,3.11,1.11,1.00,2.01,,,
2019-08-30 03:00,27.7,,,1014.36,134.50,2.78,3.28,1.38,1.00,2.12,,,
2019-08-30 04:00,27.8,,,1014.18,111.40,2.66,2.96,0.78,1.00,2.05,,,
2019-08-30 05:00,28.0,,,1013.88,100.40,4.01,4.43,1.51,1.00,3.06,,,
2019-08-30 06:00,28.1,,,1013.40,113.40,4.23,4.81,1.95,1.00,3.47,,,
2019-08-30 07:00,28.5,,,1013.10,124.80,5.58,5.94,2.34,1.00,4.06,,,
2019-08-30 08:00,28.6,,,1012.86,118.50,4.98,5.43,2.88,1.00,4.10,,,
2019-08-30 09:00,28.5,,,1012.92,116.70,5.02,5.63,2.42,1.00,3.80,,,
2019-08-30 10:00,28.4,,,1013.40,138.00,4.72,5.27,2.49,1.00,4.01,,,
2019-08-30 11:00,28.0,,,1014.12,98.30,5.29,5.74,2.74,1.00,4.41,,,
2019-08-30 12:00,28.6,,,1014.54,142.50,5.63,6.38,3.02,1.00,4.50,,,
2019-08-30 13:00,28.8,,,1014.66,134.00,5.85,6.45,3.19,1.00,4.45,,,
2019-08-30 14:00,28.9,,,1015.02,118.10,6.03,6.76,2.92,1.00,4.78,,,
2019-08-30 15:00,29.0,,,1014.90,120.60,6.01,6.77,2.74,1.00,4.74,,,
2019-08-30 16:00,29.1,,,1014.54,116.70,6.13,6.67,2.56,1.00,4.73,,,
2019-08-30 17:00,29.1,,,1014.00,109.30,5.94,6.93,3.41,1.00,4.67,,,
2019-08-30 18:00,29.1,,,1013.28,111.90,6.19,6.97,3.22,1.00,4.70,,,
2019-08-30 19:00,29.2,,,1012.44,106.60,6.51,7.03,3.25,1.00,5.17,,,
2019-08-30 20:00,29.1,,,1012.32,106.40,5.96,6.66,2.57,1.00,4.76,,,
2019-08-30 21:00,29.6,,,1012.38,104.30,5.71,6.76,3.35,1.00,4.83,,,
2019-08-30 22:00,29.1,,,1012.56,104.60,5.01,6.13,0.79,1.00,4.16,,,
2019-08-30 23:00,29.0,,,1012.86,101.90,5.41,6.76,2.60,1.00,4.42,,,
2019-08-31 00:00,28.9,,,1013.52,96.00,6.16,7.08,2.83,1.00,4.96,,,
2019-08-31 01:00,29.0,,,1014.24,90.60,6.26,7.31,3.42,1.00,5.22,,,
2019-08-31 02:00,28.9,,,1014.48,86.40,5.87,6.71,2.27,1.00,4.86,,,
2019-08-31 03:00,28.7,,,1014.48,79.40,5.39,5.91,2.93,1.00,4.60,,,
2019-08-31 04:00,28.6,,,1014.36,77.70,5.60,6.23,0.79,1.00,4.28,,,
2019-08-31 05:00,28.5,,,1013.70,80.60,6.18,6.89,2.96,1.00,4.49,,,
2019-08-31 06:00,28.5,,,1013.46,89.70,5.79,6.74,2.97,1.00,4.83,,,
2019-08-31 07:00,28.3,,,1012.92,104.00,6.08,7.23,2.79,1.00,4.96,,,
2019-08-31 08:00,28.3,,,1012.80,85.30,4.92,5.66,2.34,1.00,4.01,,,
2019-08-31 09:00,28.4,,,1012.86,94.10,5.92,6.34,2.23,1.00,4.36,,,
2019-08-31 10:00,28.6,,,1013.10,98.10,5.66,6.45,2.77,1.00,4.69,,,
2019-08-31 11:00,28.7,,,1013.52,99.70,5.45,6.39,2.66,1.00,4.49,,,
2019-08-31 12:00,29.0,,,1014.18,106.40,5.70,6.01,2.86,1.00,4.44,,,
2019-08-31 13:00,29.0,,,1014.54,106.70,5.20,6.07,2.64,1.00,4.57,,,
2019-08-31 14:00,28.9,,,1014.72,102.30,4.68,5.47,1.99,1.00,3.95,,,
2019-08-31 15:00,28.9,,,1014.60,97.20,4.55,5.36,2.01,1.00,3.94,,,
2019-08-31 16:00,29.0,,,1014.18,101.30,4.67,5.23,2.20,1.00,3.83,,,
2019-08-31 17:00,29.0,,,1013.46,106.70,4.23,5.31,1.89,1.00,3.47,,,
2019-08-31 18:00,29.0,,,1012.50,105.00,5.62,6.08,3.08,1.00,4.39,,,
2019-08-31 19:00,29.0,,,1012.02,107.10,5.23,5.93,2.42,1.00,4.05,,,
2019-08-31 20:00,29.1,,,1011.90,102.30,5.58,6.11,2.36,1.00,3.81,,,
2019-08-31 21:00,29.5,,,1012.02,93.20,4.90,5.48,2.48,1.00,3.96,,,
2019-08-31 22:00,29.1,,,1012.32,92.20,5.03,5.46,2.16,1.00,3.95,,,
2019-08-31 23:00,28.4,,,1012.56,58.79,4.39,5.29,2.08,1.00,3.61,,,
2019-09-01 00:00,28.7,,,1012.92,71.90,4.91,5.61,2.20,1.00,3.72,,,
2019-09-01 01:00,28.7,,,1013.52,57.71,5.27,5.42,2.54,1.00,4.15,,,
2019-09-01 02:00,28.5,,,1013.82,75.60,4.15,4.50,1.74,1.00,3.12,,,
2019-09-01 03:00,28.4,,,1013.70,66.54,5.02,5.69,2.44,1.00,4.10,,,
2019-09-01 04:00,28.3,,,1013.58,78.20,4.56,5.16,2.48,1.00,3.75,,,
2019-09-01 05:00,28.3,,,1013.34,79.20,4.24,4.78,2.07,1.00,3.43,,,
2019-09-01 06:00,28.4,,,1012.74,83.30,4.56,5.08,2.18,1.00,3.62,,,
2019-09-01 07:00,28.4,,,1012.38,97.60,4.71,5.58,2.21,1.00,3.59,,,
2019-09-01 08:00,28.3,,,1012.38,103.80,4.38,4.95,1.72,1.00,3.20,,,
2019-09-01 09:00,28.2,,,1012.44,92.80,4.16,4.75,1.96,1.00,3.23,,,
2019-09-01 10:00,28.1,,,1012.68,82.30,3.70,4.06,1.37,1.00,2.97,,,
2019-09-01 11:00,28.2,,,1012.98,87.70,4.47,4.99,2.17,1.00,3.42,,,
2019-09-01 12:00,28.5,,,1013.64,79.30,4.39,4.76,2.19,1.00,3.50,,,
2019-09-01 13:00,28.8,,,1014.00,97.10,4.83,5.28,2.21,1.00,3.87,,,
2019-09-01 14:00,28.9,,,1014.30,103.50,4.65,5.40,2.41,1.00,3.65,,,
2019-09-01 15:00,29.0,,,1014.54,106.70,3.96,4.72,1.37,1.00,3.01,,,
2019-09-01 16:00,28.9,,,1014.18,104.00,4.30,4.77,1.92,1.00,3.43,,,
2019-09-01 17:00,29.0,,,1013.58,104.90,4.27,4.91,2.22,1.00,3.44,,,
2019-09-01 18:00,29.3,,,1012.74,101.60,4.54,5.12,2.56,1.00,3.69,,,
2019-09-01 19:00,29.0,,,1012.20,89.30,4.77,5.05,2.36,1.00,3.61,,,
2019-09-01 20:00,29.0,,,1012.02,88.90,4.56,4.98,2.41,1.00,3.77,,,
2019-09-01 21:00,29.1,,,1012.08,92.30,4.15,4.44,1.95,1.00,3.11,,,
2019-09-01 22:00,29.0,,,1012.02,87.90,4.52,4.89,1.88,1.00,3.41,,,
2019-09-01 23:00,28.8,,,1012.32,87.70,4.05,4.53,1.98,1.00,3.31,,,
2019-09-02 00:00,28.6,,,1012.92,60.92,3.84,4.33,1.69,1.00,3.23,,,
2019-09-02 01:00,28.6,,,1013.52,80.50,3.56,3.89,1.78,1.00,2.67,,,
2019-09-02 02:00,28.2,,,1013.94,63.32,3.04,3.49,0.09,1.00,1.80,,,
2019-09-02 03:00,28.8,,,1013.64,103.00,5.58,6.32,2.84,1.00,4.63,,,
2019-09-02 04:00,28.6,,,1013.46,92.80,5.36,6.30,2.83,1.00,4.41,,,
2019-09-02 05:00,28.6,,,1013.16,78.40,5.24,6.33,2.63,1.00,4.33,,,
2019-09-02 06:00,27.0,,,1012.68,105.30,3.97,4.69,0.88,1.00,3.05,,,
2019-09-02 07:00,28.0,,,1012.32,59.32,6.40,7.02,2.90,1.00,4.39,,,
2019-09-02 08:00,28.5,,,1011.90,100.20,4.64,5.79,2.00,1.00,3.71,,,
2019-09-02 09:00,28.5,,,1012.08,110.50,5.01,5.66,2.43,1.00,4.24,,,
2019-09-02 10:00,28.5,,,1012.26,125.80,5.63,6.22,2.68,1.00,4.25,,,
2019-09-02 11:00,29.1,,,1012.68,117.50,5.45,6.35,2.61,1.00,4.54,,,
2019-09-02 12:00,28.7,,,1013.16,121.30,4.80,5.62,2.32,1.00,3.98,,,
2019-09-02 13:00,28.8,,,1013.46,126.80,4.64,5.13,2.12,1.00,3.67,,,
2019-09-02 14:00,28.9,,,1013.52,114.70,6.01,6.56,2.89,1.00,4.43,,,
2019-09-02 15:00,28.9,,,1013.40,115.20,5.59,6.66,2.92,1.00,4.73,,,
2019-09-02 16:00,29.0,,,1013.04,112.60,5.69,6.66,2.51,1.00,4.56,,,
2019-09-02 17:00,29.0,,,1012.50,107.40,4.90,5.65,2.38,1.00,4.25,,,
2019-09-02 18:00,29.3,,,1011.96,101.60,5.66,6.07,2.23,1.00,4.40,,,
2019-09-02 19:00,29.4,,,1011.36,106.30,6.00,7.06,2.65,1.00,4.88,,,
2019-09-02 20:00,29.4,,,1011.42,112.80,6.47,7.28,3.42,1.00,5.20,,,
2019-09-02 21:00,29.6,,,1011.66,128.40,5.00,5.65,2.16,1.00,3.85,,,
2019-09-02 22:00,29.2,,,1011.72,114.30,5.10,5.62,2.85,1.00,4.26,,,
2019-09-02 23:00,29.1,,,1011.84,109.90,5.52,6.27,3.03,1.00,4.74,,,
2019-09-03 00:00,29.0,,,1012.44,104.00,6.04,6.69,3.22,1.00,4.60,,,
2019-09-03 01:00,29.0,,,1013.34,101.60,5.71,6.59,3.13,1.00,4.60,,,
2019-09-03 02:00,29.0,,,1013.64,97.20,5.93,6.89,2.74,1.00,4.76,,,
2019-09-03 03:00,28.9,,,1013.58,91.90,5.66,6.58,2.73,1.00,4.59,,,
2019-09-03 04:00,28.7,,,1013.22,87.70,6.24,6.83,2.78,1.00,4.96,,,
2019-09-03 05:00,28.7,,,1012.86,83.80,5.98,7.04,3.23,1.00,5.02,,,
2019-09-03 06:00,28.7,,,1012.56,94.40,6.58,7.94,3.14,1.00,5.36,,,
2019-09-03 07:00,28.8,,,1012.26,104.70,5.99,6.76,2.75,1.00,5.20,,,
2019-09-03 08:00,28.9,,,1012.08,98.60,6.73,7.58,3.65,1.00,5.61,,,
2019-09-03 09:00,28.7,,,1012.50,102.60,5.56,6.47,2.87,1.00,4.63,,,
2019-09-03 10:00,28.5,,,1012.68,71.30,5.53,6.25,2.39,1.00,4.53,,,
2019-09-03 11:00,28.6,,,1013.40,79.80,3.20,4.11,1.49,1.00,2.72,,,
2019-09-03 12:00,28.9,,,1013.76,75.00,4.67,5.34,2.25,1.00,3.61,,,
2019-09-03 13:00,29.0,,,1014.30,95.10,5.49,6.32,2.53,1.00,4.33,,,
2019-09-03 14:00,29.2,,,1014.42,96.10,6.21,6.93,2.71,1.00,5.43,,,
2019-09-03 15:00,29.2,,,1014.30,93.50,7.20,8.19,3.44,1.00,5.33,,,
2019-09-03 16:00,29.0,,,1013.94,97.20,8.59,9.56,3.66,1.00,6.76,,,
2019-09-03 17:00,28.8,,,1013.64,95.60,8.47,9.61,4.38,1.00,7.24,,,
2019-09-03 18:00,28.9,,,1012.98,110.50,8.63,9.99,4.43,1.00,6.73,,,
2019-09-03 19:00,29.4,,,1012.38,105.70,8.21,9.61,4.32,1.00,6.46,,,
2019-09-03 20:00,29.3,,,1012.32,98.30,7.35,8.35,3.20,1.00,5.86,,,
2019-09-03 21:00,29.3,,,1012.80,104.20,6.87,7.61,3.46,1.00,5.71,,,
2019-09-03 22:00,29.2,,,1012.98,96.10,7.40,8.35,3.34,1.00,5.72,,,
2019-09-03 23:00,29.2,,,1013.28,97.60,8.68,9.01,3.61,1.00,6.66,,,
2019-09-04 00:00,29.1,,,1013.58,90.30,8.46,9.13,4.21,1.00,6.25,,,
2019-09-04 01:00,29.3,,,1014.06,92.20,8.67,9.51,4.60,1.00,7.40,,,
2019-09-04 02:00,29.2,,,1014.54,91.70,7.58,8.27,3.61,1.00,6.47,,,
2019-09-04 03:00,29.2,,,1014.78,91.30,9.13,10.42,4.75,1.00,7.15,,,
2019-09-04 04:00,29.2,,,1014.72,101.70,8.26,9.22,4.18,1.00,6.87,,,
2019-09-04 05:00,29.0,,,1014.24,100.40,8.26,9.21,3.09,1.00,6.37,,,
2019-09-04 06:00,29.0,,,1013.82,95.70,8.60,9.98,4.47,1.00,6.85,,,
2019-09-04 07:00,28.8,,,1013.46,97.50,7.62,8.33,4.36,1.00,6.32,,,
2019-09-04 08:00,28.8,,,1013.52,91.20,8.07,9.11,4.29,1.00,6.86,,,
2019-09-04 09:00,28.9,,,1013.88,97.50,8.35,9.69,4.42,1.00,6.76,,,
2019-09-04 10:00,28.9,,,1014.24,93.30,8.01,8.97,4.37,1.00,6.49,,,
2019-09-04 11:00,29.0,,,1014.90,99.70,7.77,9.11,4.80,1.00,6.68,,,
2019-09-04 12:00,29.1,,,1015.38,99.90,8.37,9.35,3.78,1.00,6.60,,,
2019-09-04 13:00,29.2,,,1015.98,91.30,7.55,8.12,3.31,1.00,6.38,,,
2019-09-04 14:00,29.2,,,1016.52,100.10,6.88,7.66,3.33,1.00,5.53,,,
2019-09-04 15:00,29.2,,,1016.52,95.40,6.36,7.34,3.28,1.00,5.32,,,
2019-09-04 16:00,29.2,,,1016.04,95.60,6.91,7.98,2.86,1.00,5.49,,,
2019-09-04 17:00,29.3,,,1015.50,96.90,5.91,6.95,3.11,1.00,4.99,,,
2019-09-04 18:00,29.4,,,1014.66,91.50,5.69,6.43,3.07,1.00,4.66,,,
2019-09-04 19:00,29.7,,,1014.12,89.20,5.83,6.81,3.51,1.00,4.72,,,
2019-09-04 20:00,28.8,,,1014.00,64.89,6.78,7.53,3.09,1.00,5.41,,,
2019-09-04 21:00,28.6,,,1014.18,61.55,6.33,6.86,1.92,1.00,3.63,,,
2019-09-04 22:00,29.3,,,1014.72,77.40,5.41,6.39,2.36,1.00,4.20,,,
2019-09-04 23:00,29.2,,,1015.14,67.00,5.08,5.88,2.64,1.00,4.54,,,
2019-09-05 00:00,29.1,,,1014.96,55.58,6.88,7.51,3.45,1.00,5.26,,,
2019-09-05 01:00,29.0,,,1015.74,64.89,6.41,6.97,3.29,1.00,4.96,,,
2019-09-05 02:00,28.6,,,1015.98,54.65,7.04,7.69,3.16,1.00,5.35,,,
2019-09-05 03:00,28.9,,,1015.86,67.90,7.37,8.18,3.58,1.00,5.81,,,
2019-09-05 04:00,28.8,,,1015.44,66.11,7.11,8.10,3.20,1.00,5.52,,,
2019-09-05 05:00,28.4,,,1014.96,63.51,6.50,7.42,3.13,1.00,5.09,,,
2019-09-05 06:00,28.6,,,1014.48,65.07,6.79,7.76,3.48,1.00,5.54,,,
2019-09-05 07:00,28.6,,,1014.18,61.76,7.56,8.40,3.92,1.00,6.12,,,
2019-09-05 08:00,28.6,,,1014.12,67.10,6.91,7.85,2.32,1.00,5.28,,,
2019-09-05 09:00,28.6,,,1014.42,76.50,5.75,6.09,2.73,1.00,4.67,,,
2019-09-05 10:00,28.4,,,1014.66,66.17,6.51,7.55,3.06,1.00,4.81,,,
2019-09-05 11:00,28.8,,,1014.90,58.60,5.76,6.29,2.55,1.00,4.64,,,
2019-09-05 12:00,28.8,,,1015.26,51.87,6.92,7.72,3.76,1.00,5.83,,,
2019-09-05 13:00,28.9,,,1015.32,57.36,7.60,8.43,3.83,1.00,6.06,,,
2019-09-05 14:00,29.0,,,1015.44,52.78,7.40,8.64,3.73,1.00,6.24,,,
2019-09-05 15:00,29.1,,,1015.56,50.80,7.58,8.03,4.25,1.00,6.31,,,
2019-09-05 16:00,29.0,,,1015.20,53.39,7.38,8.32,4.23,1.00,6.22,,,
2019-09-05 17:00,28.7,,,1014.54,83.70,4.36,5.24,1.75,1.00,3.54,,,
2019-09-05 18:00,28.9,,,1013.82,38.14,6.35,6.99,3.30,1.00,5.23,,,
2019-09-05 19:00,29.1,,,1013.40,48.79,7.10,7.64,3.36,1.00,5.37,,,
2019-09-05 20:00,28.4,,,1013.52,88.70,4.70,5.24,2.47,1.00,3.86,,,
2019-09-05 21:00,28.9,,,1013.34,83.20,4.04,4.49,1.97,1.00,3.49,,,
2019-09-05 22:00,29.0,,,1013.40,79.00,4.45,4.84,2.38,1.00,3.49,,,
2019-09-05 23:00,28.6,,,1013.70,82.80,5.36,5.87,2.48,1.00,4.01,,,
2019-09-06 00:00,28.9,,,1014.24,87.70,6.19,7.06,2.89,1.00,4.83,,,
2019-09-06 01:00,28.9,,,1014.78,73.70,5.41,5.91,2.33,1.00,4.30,,,
2019-09-06 02:00,28.7,,,1014.66,76.50,5.76,6.20,2.89,1.00,4.72,,,
2019-09-06 03:00,28.5,,,1014.30,75.50,5.52,6.37,2.50,1.00,4.71,,,
2019-09-06 04:00,28.4,,,1013.94,92.20,5.38,5.98,2.37,1.00,4.05,,,
2019-09-06 05:00,28.6,,,1013.52,95.80,6.81,7.51,2.32,1.00,4.42,,,
2019-09-06 06:00,27.8,,,1012.86,72.00,8.20,9.23,2.57,1.00,5.62,,,
2019-09-06 07:00,27.9,,,1012.32,77.70,4.16,5.18,1.67,1.00,3.60,,,
2019-09-06 08:00,27.3,,,1012.38,132.20,7.90,8.61,1.53,1.00,4.00,,,
2019-09-06 09:00,26.8,,,1012.68,87.80,2.58,3.07,0.96,1.00,1.96,,,
2019-09-06 10:00,26.9,,,1012.98,70.90,5.46,5.84,2.96,1.00,4.38,,,
2019-09-06 11:00,28.1,,,1013.46,95.60,2.30,2.88,0.72,1.00,1.80,,,
2019-09-06 12:00,28.5,,,1014.00,98.80,2.63,3.11,0.73,1.00,1.88,,,
2019-09-06 13:00,27.2,,,1014.30,25.62,3.03,3.52,1.67,1.00,2.68,,,
2019-09-06 14:00,28.1,,,1014.42,68.00,4.49,4.88,2.04,1.00,3.57,,,
2019-09-06 15:00,28.4,,,1014.30,86.50,4.82,5.35,2.75,1.00,3.86,,,
2019-09-06 16:00,28.7,,,1013.94,92.20,5.63,6.17,2.63,1.00,4.43,,,
2019-09-06 17:00,28.6,,,1013.22,99.40,6.10,6.77,2.93,1.00,5.03,,,
2019-09-06 18:00,28.9,,,1012.56,104.60,6.61,7.14,3.05,1.00,5.24,,,
2019-09-06 19:00,28.9,,,1012.44,100.50,4.64,5.95,2.15,1.00,3.95,,,
2019-09-06 20:00,29.4,,,1012.50,111.30,3.99,4.69,1.65,1.00,3.00,,,
2019-09-06 21:00,28.1,,,1012.86,76.60,7.85,8.77,1.68,1.00,4.69,,,
2019-09-06 22:00,25.6,,,1013.88,324.40,4.78,5.15,2.11,1.00,3.89,,,
2019-09-06 23:00,26.2,,,1013.64,37.70,6.08,6.40,3.00,1.00,4.55,,,
2019-09-07 00:00,27.1,,,1013.64,97.40,4.55,5.03,2.04,1.00,3.63,,,
2019-09-07 01:00,27.7,,,1014.06,67.30,2.77,3.68,0.97,1.00,2.29,,,
2019-09-07 02:00,27.7,,,1014.12,83.90,2.89,3.56,0.84,1.00,2.30,,,
2019-09-07 03:00,27.8,,,1014.12,69.50,2.15,2.50,0.59,1.00,1.52,,,
2019-09-07 04:00,28.1,,,1013.64,55.59,2.94,3.47,1.48,1.00,2.40,,,
2019-09-07 05:00,28.1,,,1013.46,56.17,2.70,3.16,0.91,1.00,1.92,,,
2019-09-07 06:00,28.2,,,1012.98,78.00,3.16,3.36,1.01,1.00,2.14,,,
2019-09-07 07:00,28.1,,,1012.56,89.30,2.96,3.16,1.38,1.00,2.09,,,